owner,sensor,date,latitude,longitude,vertical_datum,mass_concentration_of_oxygen_in_sea_water,qcFlag 
SCCF RECON,ioos:station:SCCF:56:1,2019-10-01T04:00:00Z,26.4645,-82.1044,1.917,3.68,11111222 
SCCF RECON,ioos:station:SCCF:56:1,2019-10-01T05:00:00Z,26.4645,-82.1044,2.04,4.0,11111222 
SCCF RECON,ioos:station:SCCF:56:1,2019-10-01T06:00:00Z,26.4645,-82.1044,2.109,4.11,11111222 
SCCF RECON,ioos:station:SCCF:56:1,2019-10-01T07:00:00Z,26.4645,-82.1044,2.146,4.24,11111222 
SCCF RECON,ioos:station:SCCF:56:1,2019-10-01T08:00:00Z,26.4645,-82.1044,2.081,4.29,11111222 
SCCF RECON,ioos:station:SCCF:56:1,2019-10-01T09:00:00Z,26.4645,-82.1044,1.982,4.04,11111222 
SCCF RECON,ioos:station:SCCF:56:1,2019-10-01T10:00:00Z,26.4645,-82.1044,1.867,3.65,11111222 
SCCF RECON,ioos:station:SCCF:56:1,2019-10-01T11:00:00Z,26.4645,-82.1044,1.737,3.11,11111222 
SCCF RECON,ioos:station:SCCF:56:1,2019-10-01T12:00:00Z,26.4645,-82.1044,1.603,2.59,11111222 
SCCF RECON,ioos:station:SCCF:56:1,2019-10-01T13:00:00Z,26.4645,-82.1044,1.482,2.12,11111222 
SCCF RECON,ioos:station:SCCF:56:1,2019-10-01T14:00:00Z,26.4645,-82.1044,1.409,1.8,11111222 
SCCF RECON,ioos:station:SCCF:56:1,2019-10-01T15:00:00Z,26.4645,-82.1044,1.429,1.61,11111222 
SCCF RECON,ioos:station:SCCF:56:1,2019-10-01T16:00:00Z,26.4645,-82.1044,1.601,2.7,11111222 
SCCF RECON,ioos:station:SCCF:56:1,2019-10-01T17:00:00Z,26.4645,-82.1044,1.786,4.6,11111222 
SCCF RECON,ioos:station:SCCF:56:1,2019-10-01T18:00:00Z,26.4645,-82.1044,1.922,5.35,11111222 
SCCF RECON,ioos:station:SCCF:56:1,2019-10-01T19:00:00Z,26.4645,-82.1044,2.028,5.66,11111222 
SCCF RECON,ioos:station:SCCF:56:1,2019-10-01T20:00:00Z,26.4645,-82.1044,2.104,5.7,11111222 
SCCF RECON,ioos:station:SCCF:56:1,2019-10-01T21:00:00Z,26.4645,-82.1044,2.081,5.48,11111222 
SCCF RECON,ioos:station:SCCF:56:1,2019-10-01T22:00:00Z,26.4645,-82.1044,2.009,5.52,11111222 
SCCF RECON,ioos:station:SCCF:56:1,2019-10-01T23:00:00Z,26.4645,-82.1044,1.942,5.84,11111222 
SCCF RECON,ioos:station:SCCF:56:1,2019-10-02T04:00:00Z,26.4645,-82.1044,1.897,3.86,11111222 
SCCF RECON,ioos:station:SCCF:56:1,2019-10-02T05:00:00Z,26.4645,-82.1044,2.047,3.94,11111222 
SCCF RECON,ioos:station:SCCF:56:1,2019-10-02T06:00:00Z,26.4645,-82.1044,2.138,4.48,11111222 
SCCF RECON,ioos:station:SCCF:56:1,2019-10-02T07:00:00Z,26.4645,-82.1044,2.168,4.71,11111222 
SCCF RECON,ioos:station:SCCF:56:1,2019-10-02T08:00:00Z,26.4645,-82.1044,2.166,4.73,11111222 
SCCF RECON,ioos:station:SCCF:56:1,2019-10-02T09:00:00Z,26.4645,-82.1044,2.125,4.47,11111222 
SCCF RECON,ioos:station:SCCF:56:1,2019-10-02T10:00:00Z,26.4645,-82.1044,2.021,4.32,11111222 
SCCF RECON,ioos:station:SCCF:56:1,2019-10-02T11:00:00Z,26.4645,-82.1044,1.877,3.65,11111222 
SCCF RECON,ioos:station:SCCF:56:1,2019-10-02T12:00:00Z,26.4645,-82.1044,1.729,3.03,11111222 
SCCF RECON,ioos:station:SCCF:56:1,2019-10-02T13:00:00Z,26.4645,-82.1044,1.615,2.43,11111222 
SCCF RECON,ioos:station:SCCF:56:1,2019-10-02T14:00:00Z,26.4645,-82.1044,1.512,2.13,11111222 
SCCF RECON,ioos:station:SCCF:56:1,2019-10-02T15:00:00Z,26.4645,-82.1044,1.446,1.96,11111222 
SCCF RECON,ioos:station:SCCF:56:1,2019-10-02T16:00:00Z,26.4645,-82.1044,1.486,2.0,11111222 
SCCF RECON,ioos:station:SCCF:56:1,2019-10-02T17:00:00Z,26.4645,-82.1044,1.648,2.81,11111222 
SCCF RECON,ioos:station:SCCF:56:1,2019-10-02T18:00:00Z,26.4645,-82.1044,1.797,4.35,11111222 
SCCF RECON,ioos:station:SCCF:56:1,2019-10-02T19:00:00Z,26.4645,-82.1044,1.883,5.54,11111222 
SCCF RECON,ioos:station:SCCF:56:1,2019-10-02T20:00:00Z,26.4645,-82.1044,1.946,6.25,11111222 
SCCF RECON,ioos:station:SCCF:56:1,2019-10-02T21:00:00Z,26.4645,-82.1044,1.996,6.46,11111222 
SCCF RECON,ioos:station:SCCF:56:1,2019-10-02T22:00:00Z,26.4645,-82.1044,1.997,6.26,11111222 
SCCF RECON,ioos:station:SCCF:56:1,2019-10-02T23:00:00Z,26.4645,-82.1044,1.967,5.92,11111222 
SCCF RECON,ioos:station:SCCF:56:1,2019-10-03T04:00:00Z,26.4645,-82.1044,1.903,4.65,11111222 
SCCF RECON,ioos:station:SCCF:56:1,2019-10-03T05:00:00Z,26.4645,-82.1044,2.01,4.29,11111222 
SCCF RECON,ioos:station:SCCF:56:1,2019-10-03T06:00:00Z,26.4645,-82.1044,2.103,4.4,11111222 
SCCF RECON,ioos:station:SCCF:56:1,2019-10-03T07:00:00Z,26.4645,-82.1044,2.169,4.71,11111222 
SCCF RECON,ioos:station:SCCF:56:1,2019-10-03T08:00:00Z,26.4645,-82.1044,2.198,4.73,11111222 
SCCF RECON,ioos:station:SCCF:56:1,2019-10-03T09:00:00Z,26.4645,-82.1044,2.217,4.59,11111222 
SCCF RECON,ioos:station:SCCF:56:1,2019-10-03T10:00:00Z,26.4645,-82.1044,2.185,4.43,11111222 
SCCF RECON,ioos:station:SCCF:56:1,2019-10-03T11:00:00Z,26.4645,-82.1044,2.081,4.22,11111222 
SCCF RECON,ioos:station:SCCF:56:1,2019-10-03T12:00:00Z,26.4645,-82.1044,1.958,3.53,11111222 
SCCF RECON,ioos:station:SCCF:56:1,2019-10-03T13:00:00Z,26.4645,-82.1044,1.832,2.95,11111222 
SCCF RECON,ioos:station:SCCF:56:1,2019-10-03T14:00:00Z,26.4645,-82.1044,1.709,2.67,11111222 
SCCF RECON,ioos:station:SCCF:56:1,2019-10-03T15:00:00Z,26.4645,-82.1044,1.605,2.45,11111222 
SCCF RECON,ioos:station:SCCF:56:1,2019-10-03T16:00:00Z,26.4645,-82.1044,1.538,2.29,11111222 
SCCF RECON,ioos:station:SCCF:56:1,2019-10-03T17:00:00Z,26.4645,-82.1044,1.586,2.36,11111222 
SCCF RECON,ioos:station:SCCF:56:1,2019-10-03T18:00:00Z,26.4645,-82.1044,1.737,3.53,11111222 
SCCF RECON,ioos:station:SCCF:56:1,2019-10-03T19:00:00Z,26.4645,-82.1044,1.855,5.8,11111222 
SCCF RECON,ioos:station:SCCF:56:1,2019-10-03T20:00:00Z,26.4645,-82.1044,1.932,6.31,11111222 
SCCF RECON,ioos:station:SCCF:56:1,2019-10-03T21:00:00Z,26.4645,-82.1044,1.979,6.34,11111222 
SCCF RECON,ioos:station:SCCF:56:1,2019-10-03T22:00:00Z,26.4645,-82.1044,2.01,6.27,11111222 
SCCF RECON,ioos:station:SCCF:56:1,2019-10-03T23:00:00Z,26.4645,-82.1044,2.027,6.19,11111222 
SCCF RECON,ioos:station:SCCF:56:1,2019-10-04T04:00:00Z,26.4645,-82.1044,1.947,5.33,11111222 
SCCF RECON,ioos:station:SCCF:56:1,2019-10-04T05:00:00Z,26.4645,-82.1044,1.957,5.1,11111222 
SCCF RECON,ioos:station:SCCF:56:1,2019-10-04T06:00:00Z,26.4645,-82.1044,2.031,4.89,11111222 
SCCF RECON,ioos:station:SCCF:56:1,2019-10-04T07:00:00Z,26.4645,-82.1044,2.117,4.78,11111222 
SCCF RECON,ioos:station:SCCF:56:1,2019-10-04T08:00:00Z,26.4645,-82.1044,2.181,4.95,11111222 
SCCF RECON,ioos:station:SCCF:56:1,2019-10-04T09:00:00Z,26.4645,-82.1044,2.206,4.69,11111222 
SCCF RECON,ioos:station:SCCF:56:1,2019-10-04T10:00:00Z,26.4645,-82.1044,2.19,4.41,11111222 
SCCF RECON,ioos:station:SCCF:56:1,2019-10-04T11:00:00Z,26.4645,-82.1044,2.152,4.23,11111222 
SCCF RECON,ioos:station:SCCF:56:1,2019-10-04T12:00:00Z,26.4645,-82.1044,2.071,4.21,11111222 
SCCF RECON,ioos:station:SCCF:56:1,2019-10-04T13:00:00Z,26.4645,-82.1044,1.97,3.41,11111222 
SCCF RECON,ioos:station:SCCF:56:1,2019-10-04T14:00:00Z,26.4645,-82.1044,1.84,2.83,11111222 
SCCF RECON,ioos:station:SCCF:56:1,2019-10-04T15:00:00Z,26.4645,-82.1044,1.729,2.46,11111222 
SCCF RECON,ioos:station:SCCF:56:1,2019-10-04T16:00:00Z,26.4645,-82.1044,1.637,2.2,11111222 
SCCF RECON,ioos:station:SCCF:56:1,2019-10-04T17:00:00Z,26.4645,-82.1044,1.586,2.11,11111222 
SCCF RECON,ioos:station:SCCF:56:1,2019-10-04T18:00:00Z,26.4645,-82.1044,1.608,2.33,11111222 
SCCF RECON,ioos:station:SCCF:56:1,2019-10-04T19:00:00Z,26.4645,-82.1044,1.703,2.9,11111222 
SCCF RECON,ioos:station:SCCF:56:1,2019-10-04T20:00:00Z,26.4645,-82.1044,1.818,5.21,11111222 
SCCF RECON,ioos:station:SCCF:56:1,2019-10-04T21:00:00Z,26.4645,-82.1044,1.885,6.31,11111222 
SCCF RECON,ioos:station:SCCF:56:1,2019-10-04T22:00:00Z,26.4645,-82.1044,1.936,6.44,11111222 
SCCF RECON,ioos:station:SCCF:56:1,2019-10-04T23:00:00Z,26.4645,-82.1044,1.965,6.16,11111222 
SCCF RECON,ioos:station:SCCF:56:1,2019-10-05T04:00:00Z,26.4645,-82.1044,1.985,4.8,11111222 
SCCF RECON,ioos:station:SCCF:56:1,2019-10-05T05:00:00Z,26.4645,-82.1044,1.995,4.45,11111222 
SCCF RECON,ioos:station:SCCF:56:1,2019-10-05T06:00:00Z,26.4645,-82.1044,1.997,3.91,11111222 
SCCF RECON,ioos:station:SCCF:56:1,2019-10-05T07:00:00Z,26.4645,-82.1044,2.011,3.81,11111222 
SCCF RECON,ioos:station:SCCF:56:1,2019-10-05T08:00:00Z,26.4645,-82.1044,2.045,3.76,11111222 
SCCF RECON,ioos:station:SCCF:56:1,2019-10-05T09:00:00Z,26.4645,-82.1044,2.098,4.04,11111222 
SCCF RECON,ioos:station:SCCF:56:1,2019-10-05T10:00:00Z,26.4645,-82.1044,2.13,4.16,11111222 
SCCF RECON,ioos:station:SCCF:56:1,2019-10-05T11:00:00Z,26.4645,-82.1044,2.127,4.05,11111222 
SCCF RECON,ioos:station:SCCF:56:1,2019-10-05T12:00:00Z,26.4645,-82.1044,2.096,3.86,11111222 
SCCF RECON,ioos:station:SCCF:56:1,2019-10-05T13:00:00Z,26.4645,-82.1044,2.016,3.47,11111222 
SCCF RECON,ioos:station:SCCF:56:1,2019-10-05T14:00:00Z,26.4645,-82.1044,1.916,2.87,11111222 
SCCF RECON,ioos:station:SCCF:56:1,2019-10-05T15:00:00Z,26.4645,-82.1044,1.822,2.55,11111222 
SCCF RECON,ioos:station:SCCF:56:1,2019-10-05T16:00:00Z,26.4645,-82.1044,1.713,2.31,11111222 
SCCF RECON,ioos:station:SCCF:56:1,2019-10-05T17:00:00Z,26.4645,-82.1044,1.615,2.01,11111222 
SCCF RECON,ioos:station:SCCF:56:1,2019-10-05T18:00:00Z,26.4645,-82.1044,1.558,2.28,11111222 
SCCF RECON,ioos:station:SCCF:56:1,2019-10-05T19:00:00Z,26.4645,-82.1044,1.562,2.47,11111222 
SCCF RECON,ioos:station:SCCF:56:1,2019-10-05T20:00:00Z,26.4645,-82.1044,1.685,3.34,11111222 
SCCF RECON,ioos:station:SCCF:56:1,2019-10-05T21:00:00Z,26.4645,-82.1044,1.792,4.74,11111222 
SCCF RECON,ioos:station:SCCF:56:1,2019-10-05T22:00:00Z,26.4645,-82.1044,1.863,6.08,11111222 
SCCF RECON,ioos:station:SCCF:56:1,2019-10-05T23:00:00Z,26.4645,-82.1044,1.922,5.92,11111222 
SCCF RECON,ioos:station:SCCF:56:1,2019-10-06T04:00:00Z,26.4645,-82.1044,1.967,4.27,11111222 
SCCF RECON,ioos:station:SCCF:56:1,2019-10-06T05:00:00Z,26.4645,-82.1044,1.949,4.37,11111222 
SCCF RECON,ioos:station:SCCF:56:1,2019-10-06T06:00:00Z,26.4645,-82.1044,1.94,4.26,11111222 
SCCF RECON,ioos:station:SCCF:56:1,2019-10-06T07:00:00Z,26.4645,-82.1044,1.907,4.14,11111222 
SCCF RECON,ioos:station:SCCF:56:1,2019-10-06T08:00:00Z,26.4645,-82.1044,1.945,3.93,11111222 
SCCF RECON,ioos:station:SCCF:56:1,2019-10-06T09:00:00Z,26.4645,-82.1044,2.038,3.64,11111222 
SCCF RECON,ioos:station:SCCF:56:1,2019-10-06T10:00:00Z,26.4645,-82.1044,2.104,3.63,11111222 
SCCF RECON,ioos:station:SCCF:56:1,2019-10-06T11:00:00Z,26.4645,-82.1044,2.14,4.17,11111222 
SCCF RECON,ioos:station:SCCF:56:1,2019-10-06T12:00:00Z,26.4645,-82.1044,2.132,4.13,11111222 
SCCF RECON,ioos:station:SCCF:56:1,2019-10-06T13:00:00Z,26.4645,-82.1044,2.079,3.85,11111222 
SCCF RECON,ioos:station:SCCF:56:1,2019-10-06T14:00:00Z,26.4645,-82.1044,2.008,3.51,11111222 
SCCF RECON,ioos:station:SCCF:56:1,2019-10-06T15:00:00Z,26.4645,-82.1044,1.932,3.22,11111222 
SCCF RECON,ioos:station:SCCF:56:1,2019-10-06T16:00:00Z,26.4645,-82.1044,1.835,2.75,11111222 
SCCF RECON,ioos:station:SCCF:56:1,2019-10-06T17:00:00Z,26.4645,-82.1044,1.743,2.48,11111222 
SCCF RECON,ioos:station:SCCF:56:1,2019-10-06T18:00:00Z,26.4645,-82.1044,1.655,2.43,11111222 
SCCF RECON,ioos:station:SCCF:56:1,2019-10-06T19:00:00Z,26.4645,-82.1044,1.583,2.77,11111222 
SCCF RECON,ioos:station:SCCF:56:1,2019-10-06T20:00:00Z,26.4645,-82.1044,1.603,3.29,11111222 
SCCF RECON,ioos:station:SCCF:56:1,2019-10-06T21:00:00Z,26.4645,-82.1044,1.717,4.2,11111222 
SCCF RECON,ioos:station:SCCF:56:1,2019-10-06T22:00:00Z,26.4645,-82.1044,1.836,5.06,11111222 
SCCF RECON,ioos:station:SCCF:56:1,2019-10-06T23:00:00Z,26.4645,-82.1044,1.914,6.04,11111222 
SCCF RECON,ioos:station:SCCF:56:1,2019-10-07T04:00:00Z,26.4645,-82.1044,2.035,4.42,11111222 
SCCF RECON,ioos:station:SCCF:56:1,2019-10-07T05:00:00Z,26.4645,-82.1044,1.999,4.36,11111222 
SCCF RECON,ioos:station:SCCF:56:1,2019-10-07T06:00:00Z,26.4645,-82.1044,1.926,4.0,11111222 
SCCF RECON,ioos:station:SCCF:56:1,2019-10-07T08:00:00Z,26.4645,-82.1044,1.886,4.12,11111222 
SCCF RECON,ioos:station:SCCF:56:1,2019-10-07T09:00:00Z,26.4645,-82.1044,1.952,3.8,11111222 
SCCF RECON,ioos:station:SCCF:56:1,2019-10-07T10:00:00Z,26.4645,-82.1044,2.041,3.31,11111222 
SCCF RECON,ioos:station:SCCF:56:1,2019-10-07T11:00:00Z,26.4645,-82.1044,2.102,3.27,11111222 
SCCF RECON,ioos:station:SCCF:56:1,2019-10-07T12:00:00Z,26.4645,-82.1044,2.135,3.51,11111222 
SCCF RECON,ioos:station:SCCF:56:1,2019-10-07T13:00:00Z,26.4645,-82.1044,2.137,3.85,11111222 
SCCF RECON,ioos:station:SCCF:56:1,2019-10-07T15:00:00Z,26.4645,-82.1044,2.054,3.67,11111222 
SCCF RECON,ioos:station:SCCF:56:1,2019-10-07T16:00:00Z,26.4645,-82.1044,1.949,3.85,11111222 
SCCF RECON,ioos:station:SCCF:56:1,2019-10-07T17:00:00Z,26.4645,-82.1044,1.852,3.43,11111222 
SCCF RECON,ioos:station:SCCF:56:1,2019-10-07T18:00:00Z,26.4645,-82.1044,1.75,3.27,11111222 
SCCF RECON,ioos:station:SCCF:56:1,2019-10-07T19:00:00Z,26.4645,-82.1044,1.666,3.02,11111222 
SCCF RECON,ioos:station:SCCF:56:1,2019-10-07T20:00:00Z,26.4645,-82.1044,1.629,2.7,11111222 
SCCF RECON,ioos:station:SCCF:56:1,2019-10-07T21:00:00Z,26.4645,-82.1044,1.632,2.85,11111222 
SCCF RECON,ioos:station:SCCF:56:1,2019-10-07T22:00:00Z,26.4645,-82.1044,1.751,3.34,11111222 
SCCF RECON,ioos:station:SCCF:56:1,2019-10-07T23:00:00Z,26.4645,-82.1044,1.815,4.27,11111222 
SCCF RECON,ioos:station:SCCF:56:1,2019-10-08T04:00:00Z,26.4645,-82.1044,2.114,4.34,11111222 
SCCF RECON,ioos:station:SCCF:56:1,2019-10-08T05:00:00Z,26.4645,-82.1044,2.111,4.14,11111222 
SCCF RECON,ioos:station:SCCF:56:1,2019-10-08T06:00:00Z,26.4645,-82.1044,2.039,4.26,11111222 
SCCF RECON,ioos:station:SCCF:56:1,2019-10-08T07:00:00Z,26.4645,-82.1044,1.951,4.26,11111222 
SCCF RECON,ioos:station:SCCF:56:1,2019-10-08T08:00:00Z,26.4645,-82.1044,1.929,3.9,11111222 
SCCF RECON,ioos:station:SCCF:56:1,2019-10-08T09:00:00Z,26.4645,-82.1044,1.948,3.74,11111222 
SCCF RECON,ioos:station:SCCF:56:1,2019-10-08T10:00:00Z,26.4645,-82.1044,1.979,3.49,11111222 
SCCF RECON,ioos:station:SCCF:56:1,2019-10-08T11:00:00Z,26.4645,-82.1044,2.046,3.2,11111222 
SCCF RECON,ioos:station:SCCF:56:1,2019-10-08T12:00:00Z,26.4645,-82.1044,2.124,2.6,11111222 
SCCF RECON,ioos:station:SCCF:56:1,2019-10-08T13:00:00Z,26.4645,-82.1044,2.189,2.7,11111222 
SCCF RECON,ioos:station:SCCF:56:1,2019-10-08T14:00:00Z,26.4645,-82.1044,2.192,3.26,11111222 
SCCF RECON,ioos:station:SCCF:56:1,2019-10-08T15:00:00Z,26.4645,-82.1044,2.159,3.65,11111222 
SCCF RECON,ioos:station:SCCF:56:1,2019-10-08T16:00:00Z,26.4645,-82.1044,2.084,3.33,11111222 
SCCF RECON,ioos:station:SCCF:56:1,2019-10-08T17:00:00Z,26.4645,-82.1044,1.993,3.63,11111222 
SCCF RECON,ioos:station:SCCF:56:1,2019-10-08T18:00:00Z,26.4645,-82.1044,1.89,3.67,11111222 
SCCF RECON,ioos:station:SCCF:56:1,2019-10-08T19:00:00Z,26.4645,-82.1044,1.794,3.61,11111222 
SCCF RECON,ioos:station:SCCF:56:1,2019-10-08T20:00:00Z,26.4645,-82.1044,1.71,3.25,11111222 
SCCF RECON,ioos:station:SCCF:56:1,2019-10-08T21:00:00Z,26.4645,-82.1044,1.653,3.23,11111222 
SCCF RECON,ioos:station:SCCF:56:1,2019-10-08T22:00:00Z,26.4645,-82.1044,1.665,3.02,11111222 
SCCF RECON,ioos:station:SCCF:56:1,2019-10-08T23:00:00Z,26.4645,-82.1044,1.769,3.52,11111222 
SCCF RECON,ioos:station:SCCF:56:1,2019-10-09T04:00:00Z,26.4645,-82.1044,2.141,4.92,11111222 
SCCF RECON,ioos:station:SCCF:56:1,2019-10-09T05:00:00Z,26.4645,-82.1044,2.114,4.65,11111222 
SCCF RECON,ioos:station:SCCF:56:1,2019-10-09T06:00:00Z,26.4645,-82.1044,2.016,4.36,11111222 
SCCF RECON,ioos:station:SCCF:56:1,2019-10-09T07:00:00Z,26.4645,-82.1044,1.929,4.11,11111222 
SCCF RECON,ioos:station:SCCF:56:1,2019-10-09T08:00:00Z,26.4645,-82.1044,1.907,3.7,11111222 
SCCF RECON,ioos:station:SCCF:56:1,2019-10-09T09:00:00Z,26.4645,-82.1044,1.883,3.24,11111222 
SCCF RECON,ioos:station:SCCF:56:1,2019-10-09T10:00:00Z,26.4645,-82.1044,1.876,2.6,11111222 
SCCF RECON,ioos:station:SCCF:56:1,2019-10-09T11:00:00Z,26.4645,-82.1044,1.914,2.22,11111222 
SCCF RECON,ioos:station:SCCF:56:1,2019-10-09T12:00:00Z,26.4645,-82.1044,1.998,2.26,11111222 
SCCF RECON,ioos:station:SCCF:56:1,2019-10-09T13:00:00Z,26.4645,-82.1044,2.093,2.23,11111222 
SCCF RECON,ioos:station:SCCF:56:1,2019-10-09T14:00:00Z,26.4645,-82.1044,2.152,2.9,11111222 
SCCF RECON,ioos:station:SCCF:56:1,2019-10-09T15:00:00Z,26.4645,-82.1044,2.166,3.35,11111222 
SCCF RECON,ioos:station:SCCF:56:1,2019-10-09T16:00:00Z,26.4645,-82.1044,2.135,4.01,11111222 
SCCF RECON,ioos:station:SCCF:56:1,2019-10-09T17:00:00Z,26.4645,-82.1044,2.078,3.8,11111222 
SCCF RECON,ioos:station:SCCF:56:1,2019-10-09T18:00:00Z,26.4645,-82.1044,1.974,3.53,11111222 
SCCF RECON,ioos:station:SCCF:56:1,2019-10-09T19:00:00Z,26.4645,-82.1044,1.845,3.45,11111222 
SCCF RECON,ioos:station:SCCF:56:1,2019-10-09T20:00:00Z,26.4645,-82.1044,1.729,2.98,11111222 
SCCF RECON,ioos:station:SCCF:56:1,2019-10-09T21:00:00Z,26.4645,-82.1044,1.63,2.67,11111222 
SCCF RECON,ioos:station:SCCF:56:1,2019-10-09T22:00:00Z,26.4645,-82.1044,1.578,2.66,11111222 
SCCF RECON,ioos:station:SCCF:56:1,2019-10-09T23:00:00Z,26.4645,-82.1044,1.628,2.3,11111222 
SCCF RECON,ioos:station:SCCF:56:1,2019-10-10T04:00:00Z,26.4645,-82.1044,2.02,4.05,11111222 
SCCF RECON,ioos:station:SCCF:56:1,2019-10-10T05:00:00Z,26.4645,-82.1044,2.03,4.1,11111222 
SCCF RECON,ioos:station:SCCF:56:1,2019-10-10T06:00:00Z,26.4645,-82.1044,2.018,4.32,11111222 
SCCF RECON,ioos:station:SCCF:56:1,2019-10-10T07:00:00Z,26.4645,-82.1044,1.919,4.21,11111222 
SCCF RECON,ioos:station:SCCF:56:1,2019-10-10T08:00:00Z,26.4645,-82.1044,1.836,3.48,11111222 
SCCF RECON,ioos:station:SCCF:56:1,2019-10-10T09:00:00Z,26.4645,-82.1044,1.758,2.76,11111222 
SCCF RECON,ioos:station:SCCF:56:1,2019-10-10T10:00:00Z,26.4645,-82.1044,1.724,1.88,11111222 
SCCF RECON,ioos:station:SCCF:56:1,2019-10-10T11:00:00Z,26.4645,-82.1044,1.745,1.37,11111222 
SCCF RECON,ioos:station:SCCF:56:1,2019-10-10T12:00:00Z,26.4645,-82.1044,1.881,1.5,11111222 
SCCF RECON,ioos:station:SCCF:56:1,2019-10-10T13:00:00Z,26.4645,-82.1044,2.006,2.28,11111222 
SCCF RECON,ioos:station:SCCF:56:1,2019-10-10T14:00:00Z,26.4645,-82.1044,2.092,2.96,11111222 
SCCF RECON,ioos:station:SCCF:56:1,2019-10-10T15:00:00Z,26.4645,-82.1044,2.151,3.56,11111222 
SCCF RECON,ioos:station:SCCF:56:1,2019-10-10T16:00:00Z,26.4645,-82.1044,2.158,4.36,11111222 
SCCF RECON,ioos:station:SCCF:56:1,2019-10-10T17:00:00Z,26.4645,-82.1044,2.108,4.68,11111222 
SCCF RECON,ioos:station:SCCF:56:1,2019-10-10T18:00:00Z,26.4645,-82.1044,2.002,3.98,11111222 
SCCF RECON,ioos:station:SCCF:56:1,2019-10-10T19:00:00Z,26.4645,-82.1044,1.898,4.52,11111222 
SCCF RECON,ioos:station:SCCF:56:1,2019-10-10T20:00:00Z,26.4645,-82.1044,1.782,4.41,11111222 
SCCF RECON,ioos:station:SCCF:56:1,2019-10-10T21:00:00Z,26.4645,-82.1044,1.703,3.73,11111222 
SCCF RECON,ioos:station:SCCF:56:1,2019-10-10T22:00:00Z,26.4645,-82.1044,1.617,3.59,11111222 
SCCF RECON,ioos:station:SCCF:56:1,2019-10-10T23:00:00Z,26.4645,-82.1044,1.601,3.46,11111222 
SCCF RECON,ioos:station:SCCF:56:1,2019-10-11T04:00:00Z,26.4645,-82.1044,2.091,4.78,11111222 
SCCF RECON,ioos:station:SCCF:56:1,2019-10-11T05:00:00Z,26.4645,-82.1044,2.102,4.83,11111222 
SCCF RECON,ioos:station:SCCF:56:1,2019-10-11T06:00:00Z,26.4645,-82.1044,2.043,4.81,11111222 
SCCF RECON,ioos:station:SCCF:56:1,2019-10-11T07:00:00Z,26.4645,-82.1044,1.915,4.55,11111222 
SCCF RECON,ioos:station:SCCF:56:1,2019-10-11T08:00:00Z,26.4645,-82.1044,1.818,3.72,11111222 
SCCF RECON,ioos:station:SCCF:56:1,2019-10-11T09:00:00Z,26.4645,-82.1044,1.762,3.0,11111222 
SCCF RECON,ioos:station:SCCF:56:1,2019-10-11T10:00:00Z,26.4645,-82.1044,1.693,2.47,11111222 
SCCF RECON,ioos:station:SCCF:56:1,2019-10-11T11:00:00Z,26.4645,-82.1044,1.658,1.93,11111222 
SCCF RECON,ioos:station:SCCF:56:1,2019-10-11T12:00:00Z,26.4645,-82.1044,1.742,1.69,11111222 
SCCF RECON,ioos:station:SCCF:56:1,2019-10-11T13:00:00Z,26.4645,-82.1044,1.899,2.35,11111222 
SCCF RECON,ioos:station:SCCF:56:1,2019-10-11T14:00:00Z,26.4645,-82.1044,2.022,3.32,11111222 
SCCF RECON,ioos:station:SCCF:56:1,2019-10-11T15:00:00Z,26.4645,-82.1044,2.096,3.98,11111222 
SCCF RECON,ioos:station:SCCF:56:1,2019-10-11T16:00:00Z,26.4645,-82.1044,2.143,4.67,11111222 
SCCF RECON,ioos:station:SCCF:56:1,2019-10-11T17:00:00Z,26.4645,-82.1044,2.146,5.24,11111222 
SCCF RECON,ioos:station:SCCF:56:1,2019-10-11T18:00:00Z,26.4645,-82.1044,2.093,5.48,11111222 
SCCF RECON,ioos:station:SCCF:56:1,2019-10-11T19:00:00Z,26.4645,-82.1044,1.979,5.55,11111222 
SCCF RECON,ioos:station:SCCF:56:1,2019-10-11T20:00:00Z,26.4645,-82.1044,1.859,5.53,11111222 
SCCF RECON,ioos:station:SCCF:56:1,2019-10-11T21:00:00Z,26.4645,-82.1044,1.75,5.03,11111222 
SCCF RECON,ioos:station:SCCF:56:1,2019-10-11T22:00:00Z,26.4645,-82.1044,1.669,4.59,11111222 
SCCF RECON,ioos:station:SCCF:56:1,2019-10-11T23:00:00Z,26.4645,-82.1044,1.641,4.55,11111222 
SCCF RECON,ioos:station:SCCF:56:1,2019-10-12T04:00:00Z,26.4645,-82.1044,2.117,4.74,11111222 
SCCF RECON,ioos:station:SCCF:56:1,2019-10-12T05:00:00Z,26.4645,-82.1044,2.139,4.76,11111222 
SCCF RECON,ioos:station:SCCF:56:1,2019-10-12T06:00:00Z,26.4645,-82.1044,2.089,4.66,11111222 
SCCF RECON,ioos:station:SCCF:56:1,2019-10-12T07:00:00Z,26.4645,-82.1044,1.952,4.49,11111222 
SCCF RECON,ioos:station:SCCF:56:1,2019-10-12T08:00:00Z,26.4645,-82.1044,1.834,4.05,11111222 
SCCF RECON,ioos:station:SCCF:56:1,2019-10-12T09:00:00Z,26.4645,-82.1044,1.732,3.29,11111222 
SCCF RECON,ioos:station:SCCF:56:1,2019-10-12T10:00:00Z,26.4645,-82.1044,1.66,2.54,11111222 
SCCF RECON,ioos:station:SCCF:56:1,2019-10-12T11:00:00Z,26.4645,-82.1044,1.612,2.1,11111222 
SCCF RECON,ioos:station:SCCF:56:1,2019-10-12T12:00:00Z,26.4645,-82.1044,1.632,1.66,11111222 
SCCF RECON,ioos:station:SCCF:56:1,2019-10-12T13:00:00Z,26.4645,-82.1044,1.78,1.75,11111222 
SCCF RECON,ioos:station:SCCF:56:1,2019-10-12T14:00:00Z,26.4645,-82.1044,1.957,2.42,11111222 
SCCF RECON,ioos:station:SCCF:56:1,2019-10-12T15:00:00Z,26.4645,-82.1044,2.078,3.67,11111222 
SCCF RECON,ioos:station:SCCF:56:1,2019-10-12T16:00:00Z,26.4645,-82.1044,2.159,4.71,11111222 
SCCF RECON,ioos:station:SCCF:56:1,2019-10-12T17:00:00Z,26.4645,-82.1044,2.191,5.13,11111222 
SCCF RECON,ioos:station:SCCF:56:1,2019-10-12T18:00:00Z,26.4645,-82.1044,2.152,5.42,11111222 
SCCF RECON,ioos:station:SCCF:56:1,2019-10-12T19:00:00Z,26.4645,-82.1044,2.047,5.04,11111222 
SCCF RECON,ioos:station:SCCF:56:1,2019-10-12T20:00:00Z,26.4645,-82.1044,1.928,4.87,11111222 
SCCF RECON,ioos:station:SCCF:56:1,2019-10-12T21:00:00Z,26.4645,-82.1044,1.82,4.79,11111222 
SCCF RECON,ioos:station:SCCF:56:1,2019-10-12T22:00:00Z,26.4645,-82.1044,1.744,4.56,11111222 
SCCF RECON,ioos:station:SCCF:56:1,2019-10-12T23:00:00Z,26.4645,-82.1044,1.67,4.22,11111222 
SCCF RECON,ioos:station:SCCF:56:1,2019-10-13T04:00:00Z,26.4645,-82.1044,2.093,4.27,11111222 
SCCF RECON,ioos:station:SCCF:56:1,2019-10-13T05:00:00Z,26.4645,-82.1044,2.153,4.76,11111222 
SCCF RECON,ioos:station:SCCF:56:1,2019-10-13T06:00:00Z,26.4645,-82.1044,2.128,4.72,11111222 
SCCF RECON,ioos:station:SCCF:56:1,2019-10-13T07:00:00Z,26.4645,-82.1044,2.024,4.53,11111222 
SCCF RECON,ioos:station:SCCF:56:1,2019-10-13T08:00:00Z,26.4645,-82.1044,1.891,4.04,11111222 
SCCF RECON,ioos:station:SCCF:56:1,2019-10-13T09:00:00Z,26.4645,-82.1044,1.753,3.48,11111222 
SCCF RECON,ioos:station:SCCF:56:1,2019-10-13T10:00:00Z,26.4645,-82.1044,1.648,2.67,11111222 
SCCF RECON,ioos:station:SCCF:56:1,2019-10-13T11:00:00Z,26.4645,-82.1044,1.572,2.08,11111222 
SCCF RECON,ioos:station:SCCF:56:1,2019-10-13T12:00:00Z,26.4645,-82.1044,1.564,1.58,11111222 
SCCF RECON,ioos:station:SCCF:56:1,2019-10-13T13:00:00Z,26.4645,-82.1044,1.681,1.67,11111222 
SCCF RECON,ioos:station:SCCF:56:1,2019-10-13T14:00:00Z,26.4645,-82.1044,1.866,2.51,11111222 
SCCF RECON,ioos:station:SCCF:56:1,2019-10-13T15:00:00Z,26.4645,-82.1044,2.016,3.58,11111222 
SCCF RECON,ioos:station:SCCF:56:1,2019-10-13T16:00:00Z,26.4645,-82.1044,2.136,4.74,11111222 
SCCF RECON,ioos:station:SCCF:56:1,2019-10-13T17:00:00Z,26.4645,-82.1044,2.207,5.34,11111222 
SCCF RECON,ioos:station:SCCF:56:1,2019-10-13T18:00:00Z,26.4645,-82.1044,2.214,5.72,11111222 
SCCF RECON,ioos:station:SCCF:56:1,2019-10-13T19:00:00Z,26.4645,-82.1044,2.162,5.92,11111222 
SCCF RECON,ioos:station:SCCF:56:1,2019-10-13T20:00:00Z,26.4645,-82.1044,2.069,5.71,11111222 
SCCF RECON,ioos:station:SCCF:56:1,2019-10-13T21:00:00Z,26.4645,-82.1044,1.979,5.33,11111222 
SCCF RECON,ioos:station:SCCF:56:1,2019-10-13T22:00:00Z,26.4645,-82.1044,1.877,5.59,11111222 